Location: *
(41.8289°S, 135.2961°W)
Time: 10:28:09
(UTC+00:00)

Daily predictions for brighter satellites

Satellite Brightness Start Highest point End
(mag) Time Altitude Azimuth Time Altitude Azimuth Time Altitude Azimuth
CZ-4C R/B 4.0 12:45:41 22° ENE 12:45:41 22° ENE 12:47:28 10° ENE
COSMOS 2455 3.7 12:56:48 43° NE 12:56:48 43° NE 13:00:48 10° NE
Lacrosse 5 3.8 13:08:26 23° SSE 13:08:26 23° SSE 13:10:38 10° SE
Cosmos 1745 Rocket 4.0 13:22:22 10° N 13:28:31 75° E 13:34:43 10° S
Cosmos 2369 Rocket 3.5 13:24:36 13° S 13:29:25 39° ESE 13:34:41 10° NE
SL-16 R/B 2.8 13:32:13 44° S 13:32:13 44° S 13:36:22 10° SSE
ASTEX 1 3.7 13:29:58 10° NNE 13:34:54 68° E 13:39:57 10° S
Meteor 1-11 4.4 13:31:36 10° N 13:37:10 70° E 13:42:48 10° SSE
Cosmos 1953 Rocket 3.7 13:40:41 71° ESE 13:40:41 71° ESE 13:44:50 10° SSE
DNEPR-1 R/B 3.7 13:40:48 76° SE 13:40:48 76° SE 13:45:33 10° SSE
Cosmos 2056 Rocket 3.6 13:42:15 59° NNW 13:42:15 59° NNW 13:46:37 10° N
SL-08 R/B 4.5 13:42:35 55° WNW 13:43:35 62° W 13:49:57 10° S
Cosmos 1943 Rocket 2.2 13:47:13 26° SSW 13:50:33 82° ESE 13:56:12 10° NNE
Cosmos 2297 4.0 13:52:28 46° NW 13:52:28 46° NW 13:57:09 10° N
MOS 1-B 4.3 13:46:07 10° NNE 13:51:55 90° E 13:57:48 10° SSW
BREEZE-M DEB (TANK) 3.8 13:51:30 32° N 13:52:34 39° NNE 13:55:01 10° ESE
Radarsat Rocket 4.3 13:47:44 10° NNE 13:53:44 66° ESE 13:59:34 10° S
USA 234 4.2 13:49:00 10° SE 13:54:41 32° SSW 13:56:13 29° SW
Nadezhda 1 Rocket 3.9 13:48:30 10° S 13:54:50 74° W 14:01:12 10° N
USA 276 4.2 13:55:13 23° NNE 13:55:44 24° NE 13:58:27 10° E
H-2A R/B 3.0 13:52:08 10° NNE 13:55:55 67° ESE 13:57:48 28° S
Cosmos 1315 Rocket 4.0 14:02:17 30° NNW 14:02:17 30° NNW 14:04:28 10° N
Okean O Rocket 2.3 13:56:33 10° NNE 14:00:55 55° ESE 14:05:20 10° S
Cosmos 2237 Rocket 4.2 14:05:30 13° SSW 14:05:30 13° SSW 14:06:40 10° SSW
Cosmos 1452 Rocket 3.9 13:59:43 10° SSW 14:05:04 67° ESE 14:10:21 10° NNE
Cosmos 1709 Rocket 4.0 14:02:34 10° N 14:08:43 85° E 14:15:01 10° S
Cosmos 1603 3.7 14:05:12 10° NNW 14:10:50 83° ENE 14:16:32 10° SSE
H-2A R/B 2.6 14:09:46 10° S 14:13:24 39° SW 14:13:24 39° SW
RESURS DK-1 3.8 14:19:19 22° NW 14:19:19 22° NW 14:21:17 10° NNW
ERBS 4.4 14:14:50 10° N 14:17:43 27° NE 14:20:40 10° ESE
Shenzhou-11 Module 2.5 14:19:45 43° E 14:19:45 43° E 14:21:31 10° E
Cosmos 332 Rocket 3.7 14:15:08 13° SSW 14:19:31 76° WNW 14:24:21 10° NNE
Cosmos 2058 4.2 14:15:48 10° NNE 14:19:49 43° E 14:23:53 10° SSE
Cosmos 1689 Rocket 4.0 14:20:52 10° SSE 14:23:42 33° E 14:26:27 10° NNE
ERS-2 3.4 14:20:55 10° S 14:22:59 26° SSW 14:22:59 26° SSW
Cosmos 1607 4.0 14:23:40 18° NW 14:28:20 57° SW 14:34:31 10° SSE
Cosmos 1408 4.3 14:25:31 10° NNE 14:28:53 35° E 14:32:16 10° SSE
CZ-4C R/B 2.9 14:30:56 24° WNW 14:30:56 24° WNW 14:34:39 10° NNW
Cosmos 371 Rocket 3.8 14:30:17 22° SW 14:32:56 39° WNW 14:37:28 10° N
Cosmos 1943 3.1 14:27:29 10° NNW 14:33:10 79° WSW 14:38:57 10° SSE
Cosmos 1420 Rocket 4.3 14:31:10 14° SW 14:35:18 42° WNW 14:40:11 10° N
In-Cosmos 22 Rocket 4.3 14:30:05 10° N 14:35:42 80° E 14:41:15 10° SSE
SMAP 3.0 14:32:14 10° N 14:36:55 79° WNW 14:41:40 10° SSW
CZ-4 R/B 4.1 14:35:12 10° ENE 14:38:19 21° ESE 14:41:25 10° SSE
ISS -2.4 14:38:42 23° NW 14:38:59 24° NW 14:41:45 10° N
COSMOS 2455 4.1 14:40:01 19° WNW 14:40:06 19° WNW 14:44:11 10° NNW
Cosmos 1825 4.0 14:40:30 10° NNE 14:43:58 35° E 14:47:31 10° SSE
Meteor 2-2 Rocket 4.4 14:38:45 10° S 14:44:54 86° W 14:50:52 10° N
YAOGAN 6 2.5 14:41:44 10° N 14:45:13 61° W 14:48:49 10° SSW
SAR-Lupe-4 3.8 14:45:06 10° S 14:48:36 45° WSW 14:52:03 10° NW
CZ-4B R/B 2.0 14:45:39 10° S 14:49:00 38° WSW 14:52:16 10° NW
Lacrosse 5 3.8 14:47:38 12° SW 14:50:09 16° S 14:53:20 10° SSE
Cosmos 1048 Rocket 4.1 14:46:18 10° NNW 14:51:34 58° WSW 14:56:57 10° SSE
Cosmos 2181 Rocket 4.1 14:47:25 10° SSW 14:53:55 68° W 15:00:18 10° N
USA 81 4.1 14:54:19 10° N 14:59:38 86° W 15:05:01 10° S
IRS-1C Rocket 4.3 14:55:22 10° NNE 15:00:39 80° ESE 15:06:01 10° SSW
COSMO-SKYMED 1 3.1 14:57:13 10° SSE 15:01:38 64° E 15:05:58 10° N
Cosmos 1076 Rocket 3.5 14:57:24 10° NNW 15:01:48 76° W 15:06:15 10° S
Cosmos 2221 2.8 14:59:47 10° SSW 15:04:04 46° W 15:08:17 10° NNW
ARGOS Delta rocket 4.1 15:00:08 10° NNW 15:04:16 38° W 15:08:29 10° SSW
Cosmos 1269 Rocket 4.5 14:59:14 10° N 15:04:31 69° ENE 15:09:52 10° SSE
Cosmos 1110 Rocket 4.0 14:59:52 10° SSW 15:05:07 88° WNW 15:10:21 10° NNE
CZ-4B R/B 3.9 15:01:56 10° NNW 15:07:04 35° W 15:12:15 10° SSW
Envisat 3.7 15:07:20 10° NNW 15:11:54 33° W 15:16:33 10° SSW
Helios 1A Rocket 2.9 15:08:31 10° N 15:12:42 78° WNW 15:16:57 10° SSW
Cosmos 2369 Rocket 3.0 15:08:20 10° SW 15:13:17 31° WNW 15:18:10 10° NNW
SL-16 R/B 4.1 15:14:44 10° SW 15:16:08 11° SW 15:17:33 10° SSW
Cosmos 1656 Rocket 3.8 15:11:18 10° SSW 15:16:50 57° WNW 15:22:15 10° N
Cosmos 1939 Rocket 3.3 15:12:49 10° NNE 15:16:58 72° ESE 15:21:10 10° S
Centaur D-1A AC-31 4.4 15:16:05 10° NNW 15:21:45 28° NE 15:43:21 10° E
Cosmos 2184 Rocket 4.0 15:18:07 10° NNW 15:24:16 67° W 15:30:30 10° S
Okean-O 2.8 15:20:41 10° NNE 15:25:09 85° ESE 15:29:42 10° SSW
ADEOS Rocket 3.4 15:20:31 10° S 15:26:26 47° WSW 15:32:55 10° NW
PSLV R/B 4.2 15:24:22 10° S 15:28:32 50° WSW 15:32:39 10° NNW
Cosmos 2074 Rocket 4.1 15:22:51 10° NNW 15:29:03 59° W 15:35:21 10° S
